CZ-2C R/B, 58916

Orbit data source: Space-Track

CZ-2C R/B, 58916 is space debris in LEO originally from a launch on Fri, 02 Feb 2024 UTC launched from the Xichang Space Center, China (XSC). Debris objects in space refer to the collection of defunct objects orbiting the Earth. Examples of debris include non-operational satellites, rocket bodies, and fragments generated from explosions, collisions, or faulty payload assembly.

Loading next visibility...
Identifier
58916, 2024-023M
Orbit
LEO
Country
Flag of CNCN / PRC
Related business
Manufacturer
CALT
Mission
Spacecraft
Bus & Motor
CZ-2 STAGE 2, Unknown motor
Mass
~3,800 kg wet, ~3,800 kg dry
Launch date (UTC)
2024-02-02 (2 years ago)
Launch vehicle
Unknown
Launch site
Xichang Space Center, China (XSC)
Object type
Payload
Rocket body
Debris
Shape & HBR
Cyl, 3.7 m
Radar Cross Section
23.715 m², Large (>1 m²)

Expand to show TLE details & history
Last TLE update: 21 hours ago

TLE from 21 hours ago
0 CZ-2C R/B
1 58916U 24023M   25249.20876069  .00001085  00000-0  19780-3 0  9992
2 58916  49.8979 315.0823 0095891 272.6906  86.3052 14.70836421 85499
Epoch: 2025-09-06T05:00Z
TLE epoch observation values (Epoch: 2025-09-06T05:00:36.923Z)
Latitude
-0.00007°
Longitude
-105.61748°
Altitude
655.226 km
Speed
7.533 km/s
True Right ascension
21h 00m 19s
True Declination
0° 00' 00"
Sunlit
Object was in full shadow at epoch
Visualization orbit readout
Latitude
Unknown
Longitude
Unknown
Altitude
Unknown
Speed
Unknown
Apparent Right ascension
Unknown
Apparent Declination
Unknown
Sunlit
N/A
Visualization observer readout
Local Sidereal Time
18:05:50
Azimuth
Unknown
Elevation
Unknown
Doppler factor
Unknown
Orbital elements
Apogee altitude
726.651 km
Perigee altitude
591.688 km
Semi-major axis
7,037.307 km
Eccentricity
0.00959
Inclination
49.8979°
RAAN
315.0823°
Arg. of periapsis
272.6906°
True anomaly
87.40253°
Mean anomaly
86.3052°
Eccentric anomaly
86.85379°
Mean motion
3.67649 °/min
Orbital period
97.92 mins
BSTAR
0.0001978
Loading maneuver chart data...
Computing Atmospheric mass density...
Loading historical data...
Loading historical data...
Loading historical data...
Loading historical data...
Loading historical data...
Loading historical data...
Loading historical data...

Documentation

Showing up to 5 results
|